Theta_e
327 326 326 325 324 324 323 323 323 323 322 322 322 321 321 320 319 319 319 319 319 319 320 320 321 323 324 325 326 326 327 328 328 329 329 330 330 330 330 331 331 331
324 323 323 323 322 321 321 321 321 321 321 320 319 319 319 318 317 317 317 317 317 318 318 319 320 321 322 323 324 325 325 326 327 327 328 328 328 329 329 330 330 330
321 321 321 321 321 320 320 320 320 320 319 318 317 317 316 316 316 316 316 316 316 316 317 317 318 318 319 320 321 322 323 324 325 325 325 325 326 326 327 328 329 330
320 320 320 320 320 319 319 319 318 317 316 316 315 315 314 314 314 314 314 314 315 315 315 316 316 316 317 317 318 319 320 322 322 322 322 323 323 324 324 325 327 329
320 319 319 319 318 318 318 317 316 315 315 315 314 313 313 313 313 313 313 314 314 314 314 315 315 315 315 316 316 317 318 319 319 319 319 320 321 322 323 323 324 326
318 318 318 317 317 317 316 315 315 315 314 314 313 313 313 313 313 313 313 313 313 314 314 314 314 314 314 315 315 316 316 317 317 317 317 318 318 319 320 321 322 324
318 317 317 316 316 315 315 315 314 314 313 313 313 312 312 312 312 312 312 313 313 313 313 313 313 314 314 314 315 315 315 315 315 315 315 316 316 316 317 319 321 322
317 316 316 315 314 314 314 313 313 312 312 312 312 312 311 311 312 312 312 312 312 312 312 312 312 313 313 313 313 313 314 314 314 313 313 314 314 315 315 316 317 319
316 315 314 314 313 312 312 312 311 311 311 311 311 311 311 311 311 311 311 311 311 311 311 311 311 312 312 312 312 312 312 312 312 312 312 312 313 314 314 315 315 317
314 314 313 312 312 311 311 311 310 310 310 310 310 310 310 310 310 310 310 310 310 310 310 310 310 311 311 311 311 311 312 312 312 312 311 311 311 312 313 313 314 315
313 312 312 312 311 310 310 310 310 310 309 309 309 310 309 310 309 309 309 309 309 309 309 309 309 309 309 309 310 311 311 312 312 312 311 311 311 311 312 312 313 314
312 312 311 311 310 310 309 309 309 309 309 309 309 309 309 309 309 309 308 309 309 309 309 308 308 307 307 308 309 310 311 311 312 312 312 311 311 311 312 312 312 313
311 311 310 310 309 309 308 308 308 308 308 308 308 308 309 309 309 308 308 309 309 309 308 307 306 305 305 306 307 308 310 311 312 312 312 311 311 310 310 311 311 311
310 310 309 309 308 308 308 308 308 308 308 308 308 308 308 308 308 308 309 309 309 308 307 305 304 304 303 305 306 307 309 311 311 311 311 311 310 309 309 310 310 310
309 309 309 308 308 308 308 308 308 307 308 308 308 307 308 308 308 308 308 309 309 308 306 304 303 302 302 303 305 306 309 311 311 310 310 309 309 309 309 310 310 310
309 308 308 308 308 307 308 308 308 308 308 308 308 307 308 308 308 308 308 308 308 307 306 304 301 301 302 303 304 305 308 310 309 309 308 308 308 309 309 309 309 309
308 308 307 307 307 307 307 308 308 307 308 308 307 307 307 307 307 307 307 307 307 306 305 303 301 301 303 304 304 305 307 308 308 308 307 307 307 307 308 308 308 308
308 307 307 307 307 307 307 307 307 307 307 307 307 307 307 307 306 306 306 307 307 306 305 303 301 302 304 304 303 305 306 307 307 307 307 306 306 306 306 306 306 307
308 307 307 307 307 307 307 307 307 307 307 307 306 306 306 306 306 305 306 306 306 305 304 302 301 303 304 303 303 304 306 307 307 306 306 306 306 305 305 304 304 305
307 307 307 307 307 307 307 307 307 306 306 306 306 306 306 306 305 305 305 305 305 305 304 302 301 302 303 303 304 304 305 306 306 306 305 305 304 304 303 303 303 303
307 306 307 307 306 306 306 306 306 306 306 306 306 305 305 305 305 304 304 304 304 304 304 302 301 302 303 303 304 304 305 306 306 305 305 304 303 303 303 302 301 302
306 306 306 306 306 306 306 306 305 305 305 305 305 304 304 304 303 303 303 303 303 303 303 302 300 301 302 302 303 304 305 306 305 305 304 304 303 302 302 301 300 300
306 306 306 305 305 305 305 305 305 305 304 304 304 304 303 303 303 303 302 302 302 302 302 302 300 300 301 302 303 304 305 305 305 305 304 303 303 302 302 301 300 298
305 305 305 305 304 304 304 304 304 304 304 304 304 303 303 302 302 303 302 302 301 301 301 301 299 299 300 301 301 303 304 305 304 304 303 303 302 302 301 301 300 298
304 304 304 304 304 304 304 304 304 304 304 304 303 303 302 302 302 302 302 302 301 300 300 301 300 298 298 299 300 301 302 303 303 303 303 302 302 301 301 300 300 299
303 304 303 303 304 304 304 303 303 303 303 303 303 302 302 302 302 302 302 301 301 300 299 299 299 298 297 298 299 299 301 302 302 302 302 301 301 300 300 300 300 299
Wind_Speed
4 4 3 3 3 3 2 2 2 2 2 2 2 3 3 4 5 6 6 6 7 7 7 7 7 8 8 9 9 10 10 11 12 13 14 15 16 17 18 18 18 19
6 5 5 4 4 3 3 3 3 2 2 2 3 3 3 4 5 5 6 6 6 6 6 6 6 7 8 8 9 10 10 11 12 12 14 15 16 17 18 18 19 19
7 7 7 6 4 4 4 3 3 3 3 3 4 4 4 4 5 6 6 6 6 6 7 7 7 8 8 8 9 10 10 11 12 12 13 15 15 16 17 17 18 19
8 7 7 6 5 5 4 4 4 4 5 5 5 5 5 5 5 6 7 7 7 7 8 8 9 9 9 9 9 9 10 11 12 13 14 14 15 15 17 17 17 19
8 7 6 6 6 5 6 6 6 7 7 7 7 6 6 7 7 7 8 8 8 9 9 9 10 10 10 10 9 9 10 11 11 13 14 15 15 15 16 16 16 18
7 7 7 6 7 7 7 8 8 8 8 8 7 7 7 7 8 8 9 9 9 10 10 10 11 11 10 10 10 10 11 11 11 12 14 15 15 15 15 15 16 17
8 7 7 7 8 8 9 9 9 9 8 8 8 8 8 8 8 9 10 10 10 11 11 11 11 11 11 11 11 11 11 11 11 12 14 14 14 15 15 15 15 16
8 8 8 8 9 9 10 9 9 9 9 8 8 8 9 9 9 10 10 10 10 11 11 11 11 11 11 11 11 12 12 12 11 12 13 13 13 14 14 14 14 15
8 9 9 9 9 10 11 10 10 9 9 9 9 9 9 9 10 10 10 10 10 11 11 11 12 12 11 12 11 12 12 12 12 12 12 12 13 13 13 13 13 14
10 10 10 9 10 11 11 11 10 9 10 10 10 9 9 9 10 10 10 10 10 11 11 11 12 12 12 12 12 12 12 12 12 12 12 12 13 13 13 13 13 14
10 11 11 10 10 10 11 11 10 10 10 10 10 10 10 10 10 10 10 11 11 11 11 11 12 13 13 13 13 12 12 12 12 12 12 12 12 12 13 13 13 14
10 11 11 10 9 10 10 10 11 11 11 10 10 10 10 11 11 11 11 12 12 12 11 11 12 13 14 14 14 13 12 11 12 12 12 12 12 12 13 13 13 14
10 11 10 9 9 9 10 10 11 12 11 10 10 11 11 11 11 12 12 12 13 12 12 12 12 13 14 15 15 13 12 12 12 12 12 11 11 12 12 12 13 13
10 10 10 9 9 9 10 11 12 11 11 11 11 11 12 12 12 12 12 13 13 13 12 12 13 14 17 18 16 12 11 12 11 12 12 11 11 12 13 13 13 13
9 10 9 9 9 10 10 11 12 12 12 12 12 12 12 12 12 12 13 13 13 13 13 13 13 15 17 18 16 12 10 11 11 12 13 13 14 14 14 15 15 14
9 9 9 9 9 10 11 11 12 12 12 13 12 13 13 12 12 12 13 14 14 15 15 14 15 17 15 14 14 11 10 10 10 12 14 15 16 16 16 16 17 16
9 9 9 9 9 10 11 11 12 12 12 12 12 13 13 12 13 13 13 14 14 16 17 16 17 19 16 13 14 13 11 11 12 13 14 15 16 17 18 18 18 18
10 9 9 9 10 10 11 11 12 12 12 12 12 13 13 13 13 13 14 14 14 16 18 18 19 20 17 15 16 16 16 14 13 14 15 16 17 18 19 20 20 20
10 10 10 10 10 10 11 11 12 12 12 12 12 13 13 13 13 13 14 14 14 16 18 20 23 22 18 17 18 19 18 17 15 15 16 17 18 20 21 22 22 21
10 10 10 10 10 10 11 12 12 12 12 12 12 12 12 12 13 13 14 14 14 15 17 21 26 24 18 17 19 19 19 17 16 16 17 18 19 20 22 23 23 22
10 10 11 11 11 11 12 12 13 13 13 12 12 12 12 12 13 14 14 14 14 14 16 20 26 25 21 19 19 19 18 16 16 16 16 17 18 19 21 23 23 22
10 11 11 12 12 12 13 13 13 13 13 12 12 11 12 13 14 14 15 15 14 14 15 18 24 26 23 20 20 19 17 15 15 16 16 17 18 18 19 21 23 24
11 12 12 13 13 13 13 13 13 13 13 12 11 11 12 13 14 14 15 15 15 15 15 17 21 25 24 21 19 18 16 15 14 15 16 16 17 18 17 19 22 25
12 13 13 13 13 13 13 13 13 13 12 11 11 12 12 13 13 14 15 16 16 17 16 16 19 23 23 21 19 17 16 15 14 14 16 16 16 17 17 17 21 24
13 13 13 13 13 13 13 13 13 12 11 10 11 12 13 13 14 14 15 15 16 17 17 16 18 23 25 23 21 19 17 15 14 14 16 16 16 17 18 18 19 22
14 13 14 14 13 13 13 12 12 11 11 11 12 12 13 13 14 14 15 15 15 17 19 18 17 20 24 25 24 21 19 17 16 15 15 16 16 17 18 19 19 20
Wind_Direction
102 106 105 103 94 87 88 80 70 60 43 25 8 356 345 339 339 340 338 333 329 325 322 318 314 312 309 307 306 304 301 299 297 295 292 290 289 287 285 285 284 283
103 106 108 107 99 90 88 82 69 53 36 24 11 5 355 349 350 346 342 341 336 335 335 331 327 324 320 317 315 311 308 305 302 300 298 296 294 291 289 288 285 282
103 105 105 100 91 83 74 63 56 49 46 42 31 26 17 5 1 355 352 352 348 347 346 344 343 340 336 330 324 318 314 310 307 305 302 299 296 293 291 291 290 287
103 100 96 88 80 73 64 60 62 59 58 53 42 37 31 20 14 10 8 6 2 360 356 354 354 352 348 343 336 329 321 315 310 309 306 301 298 297 294 291 289 289
97 89 82 75 70 68 66 67 67 63 58 54 47 42 36 29 25 22 19 15 11 8 5 3 2 360 357 354 350 343 334 326 320 315 311 304 301 300 298 294 288 287
86 78 71 69 68 70 72 68 63 61 56 51 48 43 38 34 31 27 24 20 17 14 11 9 6 3 1 358 353 349 342 334 327 323 317 310 306 303 300 298 293 289
78 71 66 66 69 70 70 66 60 57 52 48 47 42 40 38 36 33 28 25 22 19 15 12 8 5 1 357 350 345 341 333 328 324 319 315 312 308 304 300 296 293
74 71 66 65 68 67 64 62 58 53 49 47 44 40 40 40 38 36 32 30 27 22 17 13 8 4 360 355 348 343 339 335 330 326 322 320 318 316 313 308 301 297
76 73 69 66 65 62 60 59 57 54 50 47 45 41 39 39 39 38 35 32 29 23 17 12 8 4 358 353 349 344 341 338 335 331 326 324 323 323 321 317 311 306
79 74 69 65 61 60 60 60 58 56 52 50 48 44 43 42 41 41 37 33 29 24 19 14 11 6 0 355 352 348 344 342 340 337 332 329 326 326 325 323 319 314
78 73 68 63 60 60 61 61 60 58 56 53 51 49 48 46 44 43 39 35 31 27 23 19 14 8 3 358 354 352 349 346 344 341 338 335 333 330 328 326 321 317
74 71 68 63 60 62 62 62 62 60 58 56 53 52 51 48 47 44 41 38 35 32 28 22 15 10 5 360 356 354 353 350 348 347 345 342 341 341 339 335 331 328
73 69 68 64 62 64 64 64 64 62 61 59 56 55 53 49 48 45 43 42 38 35 30 22 15 10 7 5 1 355 353 353 354 355 355 354 353 353 354 352 349 347
73 70 69 69 68 69 68 67 67 65 64 62 60 58 54 51 49 47 46 44 40 36 30 22 17 12 10 10 8 1 355 356 1 3 4 4 3 2 3 2 358 357
76 74 73 72 72 72 71 70 70 69 69 66 63 60 56 52 50 49 47 44 40 36 30 24 18 14 13 12 11 7 360 358 3 7 6 6 6 6 7 5 3 360
80 79 77 76 76 75 74 75 75 74 72 68 63 60 56 53 50 49 47 43 40 35 31 26 18 13 16 19 20 21 14 6 8 10 10 10 8 7 6 5 5 2
85 83 81 79 79 78 79 80 78 76 72 67 63 60 56 53 50 49 47 45 43 37 32 26 17 12 16 26 32 38 35 22 16 16 16 16 13 12 8 5 5 5
89 88 85 84 84 82 83 82 78 75 70 66 64 60 56 54 51 49 48 45 44 40 34 26 18 15 21 32 38 42 44 37 27 25 25 24 22 20 16 12 11 11
92 93 90 89 87 84 84 81 77 74 70 67 65 61 57 55 52 49 48 46 44 41 35 26 21 21 29 41 43 43 45 43 35 33 34 31 29 27 23 20 19 16
95 96 94 92 88 86 85 81 77 75 71 68 66 62 58 56 53 49 47 46 45 43 36 27 24 24 32 44 48 45 44 42 38 37 37 34 32 30 27 23 21 18
98 99 97 94 91 89 86 82 79 76 73 70 68 64 62 60 55 51 49 47 45 44 39 30 26 27 34 45 49 47 43 41 39 38 38 35 32 30 27 23 20 18
101 101 99 97 95 91 87 83 80 78 75 74 73 70 68 66 60 55 52 50 46 46 42 33 29 30 36 45 51 49 43 40 40 40 39 36 32 29 27 25 21 18
105 103 101 99 95 91 86 83 81 80 79 78 78 75 71 69 66 61 57 53 50 47 44 36 29 29 33 41 48 50 44 37 37 37 35 33 31 27 24 23 20 19
105 103 101 98 95 91 87 84 83 83 82 80 79 77 73 70 69 67 62 58 54 51 48 42 33 28 29 34 38 44 43 35 32 33 30 27 25 23 20 19 17 20
105 102 100 97 95 92 88 87 86 84 83 82 80 78 76 72 71 69 66 62 58 53 49 45 37 31 31 32 33 39 44 38 30 31 30 25 23 22 21 22 21 21
104 101 99 98 96 95 92 90 87 84 81 81 79 79 78 75 72 71 68 65 62 56 50 47 42 35 33 36 37 41 47 45 37 36 36 31 30 30 27 28 28 24